Regional Weather Roundup
Issued by NWS Kansas City/Pleasant Hill, MO

Home | Current Version | Previous Version | Graphics & Text | Print | Product List | Glossary Off
Versions: 1 2 3 4 5 6 7 8 9 10 11 12 13 14 15 16 17 18 19 20 21 22 23 24 25 26 27 28 29 30 31 32 33 34 35 36 37 38 39 40 41 42 43 44 45 46 47 48 49 50

000
ASUS43 KEAX 030010
RWREAX

WEATHER ROUNDUP FOR EASTERN KANSAS AND NORTHWEST MISSOURI
NATIONAL WEATHER SERVICE KANSAS CITY/PLEASANT HILL MO
700 PM CDT WED SEP 02 2015

KSZ040-057-103>105-MOZ028-029-037-043-030100-
...KANSAS CITY METROPOLITAN AREA...

CITY           SKY/WX    TMP DP  RH WIND       PRES   REMARKS
K.C. INTL      PTCLDY    84  68  58 S13       29.92S
6HR MIN TEMP:  81; 6HR MAX TEMP:  90;

K.C. DOWNTOWN  CLEAR     87  68  52 SW13      29.91S HX  90
6HR MIN TEMP:  82; 6HR MAX TEMP:  91;

LEES SUMMIT    CLEAR     85  67  54 S10G18    29.94S
6HR MIN TEMP:  84; 6HR MAX TEMP:  88;

OLATHE - IXD   CLEAR     83  70  64 S9        29.94S
6HR MIN TEMP:  82; 6HR MAX TEMP:  88;

OLATHE - OJC   CLEAR     82  69  64 S8        29.93S
6HR MIN TEMP:  80; 6HR MAX TEMP:  86;

LAWRENCE       CLEAR     85  68  56 S7        29.91S

$$

MOZ001>008-011>017-020>025-030>033-038>040-044>046-053-054-030100-
...NORTHERN AND CENTRAL MISSOURI...

CITY           SKY/WX    TMP DP  RH WIND       PRES   REMARKS
ST. JOSEPH     CLEAR     84  71  65 S9        29.89S
6HR MIN TEMP:  80; 6HR MAX TEMP:  88;

MOSBY          CLEAR     86  68  54 S6        29.91S
WHITEMAN AFB   NOT AVBL
CLINTON        CLEAR     86  70  58 S6        29.95S HX  90
SEDALIA        CLEAR     86  67  52 S6        29.97R
6HR MIN TEMP:  84; 6HR MAX TEMP:  92;

WARSAW         NOT AVBL
CHILLICOTHE      N/A     84  71  65 S3        29.93R
6HR MIN TEMP:  76; 6HR MAX TEMP:  90;

KIRKSVILLE     CLEAR     80  69  69 S7        29.96S
6HR MIN TEMP:  76; 6HR MAX TEMP:  87;


$$

MOZ041-047>049-056>058-063>065-088>090-097-030100-
...EASTERN AND SOUTHERN MISSOURI...

CITY           SKY/WX    TMP DP  RH WIND       PRES   REMARKS
ST. LOUIS INTL MOCLDY    89  66  46 SW6       29.99S HX  91
6HR MIN TEMP:  89; 6HR MAX TEMP:  94;

SPIRIT OF STL  MOCLDY    83  75  77 CALM      29.97S HX  90
COLUMBIA       CLEAR     83  71  67 SE5       29.98S
JEFFERSON CITY CLEAR     87  67  51 S6        29.96S HX  90
ROLLA          PTCLDY    82  66  58 S7        30.00R
OSAGE BEACH    CLEAR     84  66  54 S3        29.99R
SPRINGFIELD    CLEAR     84  68  58 S8        29.99S
BRANSON        CLEAR     84  66  54 S6        30.02S
JOPLIN         CLEAR     84  69  60 S9        29.97S
WEST PLAINS    PTCLDY    84  67  56 S7        30.03S

$$

IAZ060-094-KSZ022-034>040-054-083-096-NEZ052-066-093-030100-
...KANSAS...SOUTHEAST NEBRASKA AND IOWA...

CITY           SKY/WX    TMP DP  RH WIND       PRES   REMARKS
TOPEKA         CLEAR     86  68  54 S10       29.89S
6HR MIN TEMP:  83; 6HR MAX TEMP:  91;

MANHATTAN      CLEAR     91  66  43 S14G22    29.85S HX  93
EMPORIA        CLEAR     85  69  58 S15       29.91S
CHANUTE        CLEAR     84  69  60 S12       29.94F
WICHITA        SUNNY     90  64  42 S15G30    29.88S HX  91
OMAHA          MOCLDY    88  71  57 S15       29.83S HX  94
LINCOLN        MOSUNNY   88  68  51 S9        29.83R HX  91
FALLS CITY     CLEAR     86  69  56 S9        29.86S HX  90
LAMONI         PTCLDY    84  72  67 S8        29.91F
DES MOINES     PTCLDY    83  68  60 S7        29.89R

$$



USA.gov is the U.S. government's official web portal to all federal, state and local government web resources and services.